DW1996 Weather Reports


time (UTC)temp
C
wind
direction
speed
KPH
gust
KPH
rain 1hr
cm
rain 24hr
cm
rain mn
cm
humidity
%
barometer
mb
20260506201617 32 144 12.9 30.6 0.00 0.00 0.00 71 1005.1
20260506200052 32 182 16.1 25.7 0.00 0.00 0.00 70 1005.4
20260506194552 32 124 16.1 27.4 0.00 0.00 0.00 72 1005.5
20260506193052 32 150 16.1 33.8 0.00 0.00 0.00 72 1005.6
20260506191547 32 155 14.5 22.5 0.00 0.00 0.00 72 1005.7
20260506190045 32 199 14.5 25.7 0.00 0.00 0.00 72 1005.8
20260506184550 32 161 12.9 24.1 0.00 0.00 0.00 73 1005.9
20260506183041 31 211 12.9 20.9 0.00 0.00 0.00 75 1006.0
20260506181540 31 149 12.9 29.0 0.00 0.00 0.00 76 1006.2
20260506180039 31 196 12.9 25.7 0.00 0.00 0.00 75 1006.4
20260506174536 31 153 12.9 24.1 0.00 0.00 0.00 75 1006.4
20260506173039 30 159 14.5 24.1 0.00 0.00 0.00 77 1006.6
20260506171542 30 155 12.9 24.1 0.00 0.00 0.00 78 1006.9
20260506170030 30 169 12.9 20.9 0.00 0.00 0.00 76 1007.0
20260506164529 30 177 12.9 27.4 0.00 0.00 0.00 76 1006.8
20260506163038 29 216 14.5 25.7 0.00 0.00 0.00 78 1006.8
20260506161527 30 174 12.9 19.3 0.00 0.00 0.00 77 1006.8
20260506160027 30 182 11.3 17.7 0.00 0.00 0.00 78 1006.5
20260506154530 30 142 8.0 20.9 0.00 0.00 0.00 78 1006.5
20260506153022 29 185 11.3 17.7 0.00 0.00 0.00 79 1006.4
20260506151518 28 183 6.4 11.3 0.00 0.00 0.00 82 1006.6
20260506150015 28 157 3.2 9.7 0.00 0.00 0.00 83 1007.0
20260506144513 27 192 6.4 11.3 0.00 0.00 0.00 84 1007.0
20260506143015 27 192 1.6 14.5 0.00 0.00 0.00 85 1007.1
20260506141507 27 202 3.2 12.9 0.00 0.00 0.00 87 1007.1
20260506140004 26 195 1.6 9.7 0.00 0.00 0.00 87 1007.1
20260506134501 26 205 1.6 12.9 0.00 0.00 0.00 88 1007.0
20260506133103 26 195 4.8 14.5 0.00 0.00 0.00 88 1006.7
20260506131558 26 178 4.8 14.5 0.00 0.00 0.00 88 1006.5
20260506130056 26 192 6.4 14.5 0.00 0.00 0.00 89 1006.4
20260506124554 26 195 6.4 20.9 0.00 0.00 0.00 89 1006.0
20260506123052 26 177 8.0 20.9 0.00 0.00 0.00 89 1005.7
20260506121551 26 178 8.0 17.7 0.00 0.00 0.00 89 1005.5
20260506120107 26 182 3.2 24.1 0.00 0.00 0.00 89 1005.2
20260506114603 26 154 9.7 20.9 0.00 0.00 0.00 89 1004.9
20260506113049 26 184 9.7 25.7 0.00 0.00 0.00 89 1004.6
20260506111552 26 180 8.0 22.5 0.00 0.00 0.00 89 1004.4
20260506110048 26 160 14.5 22.5 0.00 0.00 0.00 89 1004.3
20260506104547 26 164 11.3 19.3 0.00 0.00 0.00 89 1004.4
20260506103043 26 191 11.3 19.3 0.00 0.00 0.00 89 1004.4
20260506101542 26 164 8.0 17.7 0.00 0.00 0.00 89 1004.5
20260506100043 26 192 9.7 24.1 0.00 0.00 0.00 89 1004.5
20260506094544 26 180 9.7 25.7 0.00 0.00 0.00 89 1004.4
20260506093100 26 127 9.7 20.9 0.00 0.00 0.00 89 1004.5
20260506091536 26 163 4.8 17.7 0.00 0.00 0.00 89 1004.6
20260506090039 25 132 11.3 22.5 0.00 0.00 0.00 89 1004.4
20260506084532 25 161 8.0 25.7 0.00 0.00 0.00 89 1004.6
20260506083031 25 127 11.3 22.5 0.00 0.00 0.00 89 1004.8
20260506081528 25 148 6.4 25.7 0.00 0.00 0.00 88 1004.8
20260506073021 26 144 9.7 22.5 0.00 0.00 0.00 88 1005.4
20260506071518 26 148 9.7 24.1 0.00 0.00 0.00 88 1005.6
20260506061509 26 163 9.7 25.7 0.00 0.00 0.00 87 1006.2
20260506044551 26 180 11.3 22.5 0.00 0.00 0.00 86 1007.0
20260506043052 26 155 6.4 16.1 0.00 0.00 0.00 86 1006.9
20260506041603 26 147 6.4 19.3 0.00 0.00 0.00 85 1006.9
20260506040052 26 169 9.7 17.7 0.00 0.00 0.00 85 1006.9
20260506034546 26 158 11.3 24.1 0.00 0.00 0.00 85 1006.6
20260506033049 26 166 11.3 22.5 0.00 0.00 0.00 86 1006.5
20260506031547 26 180 11.3 24.1 0.00 0.00 0.00 86 1006.2
20260506030043 26 161 11.3 27.4 0.00 0.00 0.00 86 1006.0
20260506024542 26 186 12.9 19.3 0.00 0.00 0.00 86 1005.8
20260506023051 26 138 12.9 24.1 0.00 0.00 0.00 86 1005.6
20260506021542 26 218 14.5 24.1 0.00 0.00 0.00 85 1005.3
20260506020110 26 161 17.7 25.7 0.00 0.00 0.00 85 1004.9
20260506014541 26 169 16.1 30.6 0.00 0.00 0.00 85 1004.7
20260506013040 26 178 12.9 25.7 0.00 0.00 0.00 85 1004.5
20260506011545 26 153 17.7 32.2 0.00 0.00 0.00 85 1004.1
20260506010039 26 194 12.9 27.4 0.00 0.00 0.00 84 1004.0
20260506004542 27 153 19.3 30.6 0.00 0.00 0.00 84 1004.0
20260506003038 27 155 22.5 35.4 0.00 0.00 0.00 83 1003.9
20260506001545 27 159 17.7 35.4 0.00 0.00 0.00 82 1003.9
20260506000053 27 159 14.5 27.4 0.00 0.00 0.00 81 1003.9
20260505234540 27 162 17.7 35.4 0.00 0.00 0.00 81 1003.9
20260505233036 27 176 12.9 27.4 0.00 0.00 0.00 80 1003.9
20260505231535 27 164 19.3 33.8 0.00 0.00 0.00 80 1004.0
20260505230134 28 173 17.7 35.4 0.00 0.00 0.00 78 1004.0
20260505224541 28 164 16.1 35.4 0.00 0.00 0.00 78 1004.2
20260505223036 28 182 16.1 33.8 0.00 0.00 0.00 78 1004.3
20260505221529 28 170 19.3 35.4 0.00 0.00 0.00 77 1004.4
20260505220028 28 198 20.9 33.8 0.00 0.00 0.00 76 1004.4
20260505214527 28 181 19.3 40.2 0.00 0.00 0.00 76 1004.5
20260505213028 28 153 22.5 38.6 0.00 0.00 0.00 75 1004.5
20260505211531 29 186 12.9 33.8 0.00 0.00 0.00 74 1004.6
20260505210024 29 208 16.1 29.0 0.00 0.00 0.00 75 1004.8
20260505204523 29 169 19.3 33.8 0.00 0.00 0.00 74 1004.9
20260505203021 29 148 17.7 30.6 0.00 0.00 0.00 74 1005.2